Погода в Пугачеве

Россия / Саратовская область     52°00′53″N   48°47′44″E
темп.,
°C
ветер,
м/с
пор.,
м/с
влажн.,
%
обл.,
%
осадки,
мм/ч
давл.,
гПа
погр.,
м
23 октября, сб
сб2301:00+11зюз6137971 0.0 1011368
04:00+9юз5128876 0.0 1012252
07:00+9юз41191100 0.0 1013226
10:00+12юз51071100 0.0 1014381
13:00+16юз71147100 0.0 10141115
16:00+15юз5866100 0.1 1014801
19:00+13ююз3676100 0.1 1014136
22:00+12ю3780100 0.2 1013144
24 октября, вс
вс2401:00+12зюз61381100 2.4 1012653
04:00+10юз4994100 5.2 1012465
07:00+10зюз5108942 0.4 1012374
10:00+10зсз586997 0.4 1014674
13:00+11з564625 0.0 10151198
16:00+11з5648100 0.0 10151371
19:00+8з356093 0.0 1015110
22:00+7зсз2264100 0.0 101523
25 октября, пн
пн2501:00+6зсз2263100 0.0 101523
04:00+6зсз1165100 0.0 101411
07:00+5зсз2268100 0.0 101438
10:00+6ссз576685 0.0 1015451
13:00+8ссз665615 0.0 10161093
16:00+7ссз6752100 0.0 10171531
19:00+5с71071100 0.0 1020924
22:00+3с8127115 0.0 1022928
26 октября, вт
вт2601:00+2с712625 0.0 1024789
04:000с612705 0.0 1026512
07:00−1с51175100 0.0 1028370
10:00+2с46595 0.0 1029425
13:00+5ссз34385 0.0 1029839
16:00+6з453453 0.0 1028802
19:00+3зюз48436 0.0 1028152
22:00+2зюз4104739 0.0 1028207
27 октября, ср
ср2701:00+1зюз49548 0.0 1028180
04:00+1зюз5105767 0.0 1027216
07:000зюз5116031 0.0 1027228
10:00+3зюз61147100 0.0 1027365
13:00+8зюз71035100 0.0 1025656
16:00+8зюз61136100 0.0 1024665
19:00+5юз51342100 0.0 1024340
22:00+4юз51345100 0.0 1023319